| time (UTC) | temp C | wind direction | speed KPH | gust KPH | rain 1hr cm | rain 24hr cm | rain mn cm | humidity % | barometer mb |
| 20260509031051 | 15 | 0 | 0.0 | 0.0 | 0.00 | 0.00 | 0.00 | 74 | 1014.4 |
| 20260509030552 | 15 | 0 | 0.0 | 0.0 | 0.00 | 0.00 | 0.00 | 74 | 1014.5 |
| 20260509030106 | 15 | 0 | 0.0 | 0.0 | 0.00 | 0.00 | 0.00 | 75 | 1014.6 |
| 20260509025553 | 15 | 0 | 0.0 | 0.0 | 0.00 | 0.00 | 0.00 | 74 | 1014.6 |
| 20260509025053 | 15 | 0 | 0.0 | 0.0 | 0.00 | 0.00 | 0.00 | 71 | 1014.7 |
| 20260509024555 | 15 | 0 | 0.0 | 0.0 | 0.00 | 0.00 | 0.00 | 72 | 1014.7 |
| 20260509024053 | 16 | 0 | 0.0 | 0.0 | 0.00 | 0.00 | 0.00 | 72 | 1014.8 |
| 20260509023556 | 16 | 0 | 0.0 | 0.0 | 0.00 | 0.00 | 0.00 | 71 | 1014.9 |
| 20260509023058 | 16 | 0 | 0.0 | 0.0 | 0.00 | 0.00 | 0.00 | 70 | 1014.6 |
| 20260509022553 | 16 | 0 | 0.0 | 0.0 | 0.00 | 0.00 | 0.00 | 69 | 1014.6 |
| 20260509022053 | 16 | 0 | 0.0 | 0.0 | 0.00 | 0.00 | 0.00 | 69 | 1014.5 |
| 20260509021551 | 16 | 0 | 0.0 | 0.0 | 0.00 | 0.00 | 0.00 | 69 | 1014.6 |
| 20260509021053 | 16 | 0 | 0.0 | 0.0 | 0.00 | 0.00 | 0.00 | 69 | 1014.5 |
| 20260509020553 | 16 | 0 | 0.0 | 0.0 | 0.00 | 0.00 | 0.00 | 69 | 1014.4 |
| 20260509020056 | 16 | 0 | 0.0 | 0.0 | 0.00 | 0.00 | 0.00 | 70 | 1014.4 |
| 20260509015553 | 16 | 0 | 0.0 | 0.0 | 0.00 | 0.00 | 0.00 | 69 | 1014.1 |
| 20260509015054 | 16 | 0 | 0.0 | 0.0 | 0.00 | 0.00 | 0.00 | 69 | 1014.2 |
| 20260509014601 | 16 | 0 | 0.0 | 0.0 | 0.00 | 0.00 | 0.00 | 69 | 1014.1 |
| 20260509014056 | 16 | 0 | 0.0 | 0.0 | 0.00 | 0.00 | 0.00 | 67 | 1014.1 |
| 20260509013553 | 17 | 0 | 0.0 | 0.0 | 0.00 | 0.00 | 0.00 | 68 | 1014.2 |
| 20260509013100 | 17 | 0 | 0.0 | 0.0 | 0.00 | 0.00 | 0.00 | 65 | 1014.1 |
| 20260509012553 | 17 | 0 | 0.0 | 0.0 | 0.00 | 0.00 | 0.00 | 65 | 1014.0 |
| 20260509012053 | 17 | 0 | 0.0 | 0.0 | 0.00 | 0.00 | 0.00 | 66 | 1014.1 |
| 20260509011554 | 17 | 0 | 0.0 | 0.0 | 0.00 | 0.00 | 0.00 | 65 | 1014.1 |
| 20260509011057 | 17 | 0 | 0.0 | 0.0 | 0.00 | 0.00 | 0.00 | 63 | 1014.1 |
| 20260509010555 | 17 | 0 | 0.0 | 0.0 | 0.00 | 0.00 | 0.00 | 63 | 1014.2 |
| 20260509010056 | 17 | 0 | 0.0 | 0.0 | 0.00 | 0.00 | 0.00 | 62 | 1014.3 |
| 20260509005555 | 17 | 0 | 0.0 | 0.0 | 0.00 | 0.00 | 0.00 | 61 | 1014.3 |
| 20260509005052 | 18 | 0 | 0.0 | 0.0 | 0.00 | 0.00 | 0.00 | 61 | 1014.2 |
| 20260509004603 | 18 | 0 | 0.0 | 0.0 | 0.00 | 0.00 | 0.00 | 60 | 1014.3 |
| 20260509004054 | 18 | 0 | 0.0 | 0.0 | 0.00 | 0.00 | 0.00 | 60 | 1014.3 |
| 20260509003554 | 18 | 0 | 0.0 | 0.0 | 0.00 | 0.00 | 0.00 | 60 | 1014.4 |
| 20260509003053 | 18 | 0 | 0.0 | 0.0 | 0.00 | 0.00 | 0.00 | 60 | 1014.4 |
| 20260509002555 | 18 | 0 | 0.0 | 0.0 | 0.00 | 0.00 | 0.00 | 59 | 1014.2 |
| 20260509002054 | 18 | 0 | 0.0 | 3.2 | 0.00 | 0.00 | 0.00 | 58 | 1014.3 |
| 20260509001556 | 18 | 0 | 0.0 | 3.2 | 0.00 | 0.00 | 0.00 | 59 | 1014.3 |
| 20260509001053 | 18 | 0 | 0.0 | 3.2 | 0.00 | 0.00 | 0.00 | 57 | 1014.4 |
| 20260509000553 | 19 | 0 | 0.0 | 3.2 | 0.00 | 0.00 | 0.00 | 58 | 1014.2 |
| 20260509000055 | 19 | 0 | 0.0 | 3.2 | 0.00 | 0.00 | 0.00 | 57 | 1014.2 |
| 20260508235553 | 19 | 0 | 0.0 | 4.8 | 0.00 | 0.00 | 0.00 | 57 | 1014.2 |
| 20260508235053 | 19 | 0 | 0.0 | 4.8 | 0.00 | 0.00 | 0.00 | 56 | 1014.1 |
| 20260508234553 | 19 | 360 | 0.0 | 4.8 | 0.00 | 0.00 | 0.00 | 57 | 1014.1 |
| 20260508234053 | 20 | 360 | 1.6 | 4.8 | 0.00 | 0.00 | 0.00 | 57 | 1014.0 |
| 20260508233553 | 20 | 360 | 0.0 | 4.8 | 0.00 | 0.00 | 0.00 | 58 | 1014.0 |
| 20260508233104 | 20 | 0 | 0.0 | 4.8 | 0.00 | 0.00 | 0.00 | 58 | 1014.0 |
| 20260508232552 | 20 | 360 | 0.0 | 4.8 | 0.00 | 0.00 | 0.00 | 57 | 1014.0 |
| 20260508232052 | 20 | 360 | 1.6 | 4.8 | 0.00 | 0.00 | 0.00 | 54 | 1014.0 |
| 20260508231600 | 20 | 0 | 0.0 | 6.4 | 0.00 | 0.00 | 0.00 | 55 | 1014.1 |
| 20260508231054 | 20 | 0 | 0.0 | 6.4 | 0.00 | 0.00 | 0.00 | 55 | 1014.1 |
| 20260508230553 | 20 | 360 | 0.0 | 6.4 | 0.00 | 0.00 | 0.00 | 56 | 1014.2 |
| 20260508230107 | 20 | 360 | 1.6 | 4.8 | 0.00 | 0.00 | 0.00 | 53 | 1014.3 |
| 20260508225553 | 20 | 0 | 0.0 | 6.4 | 0.00 | 0.00 | 0.00 | 54 | 1014.3 |
| 20260508225053 | 20 | 0 | 1.6 | 6.4 | 0.00 | 0.00 | 0.00 | 54 | 1014.3 |
| 20260508224555 | 20 | 360 | 1.6 | 6.4 | 0.00 | 0.00 | 0.00 | 53 | 1014.3 |
| 20260508224053 | 20 | 0 | 0.0 | 6.4 | 0.00 | 0.00 | 0.00 | 53 | 1014.3 |
| 20260508223553 | 20 | 360 | 0.0 | 6.4 | 0.00 | 0.00 | 0.00 | 55 | 1014.5 |
| 20260508223054 | 20 | 360 | 1.6 | 6.4 | 0.00 | 0.00 | 0.00 | 52 | 1014.4 |
| 20260508222551 | 20 | 360 | 0.0 | 3.2 | 0.00 | 0.00 | 0.00 | 53 | 1014.5 |
| 20260508222052 | 20 | 0 | 0.0 | 3.2 | 0.00 | 0.00 | 0.00 | 55 | 1014.3 |
| 20260508221558 | 21 | 0 | 0.0 | 3.2 | 0.00 | 0.00 | 0.00 | 52 | 1014.5 |
| 20260508221053 | 21 | 0 | 0.0 | 3.2 | 0.00 | 0.00 | 0.00 | 49 | 1014.6 |
| 20260508220552 | 21 | 360 | 0.0 | 6.4 | 0.00 | 0.00 | 0.00 | 52 | 1014.4 |
| 20260508220057 | 21 | 0 | 1.6 | 6.4 | 0.00 | 0.00 | 0.00 | 50 | 1014.3 |
| 20260508215552 | 21 | 0 | 0.0 | 3.2 | 0.00 | 0.00 | 0.00 | 50 | 1014.3 |
| 20260508215052 | 21 | 0 | 0.0 | 0.0 | 0.00 | 0.00 | 0.00 | 52 | 1014.3 |
| 20260508214605 | 21 | 0 | 0.0 | 0.0 | 0.00 | 0.00 | 0.00 | 51 | 1014.3 |
| 20260508214052 | 21 | 0 | 0.0 | 1.6 | 0.00 | 0.00 | 0.00 | 53 | 1014.2 |
| 20260508213553 | 21 | 0 | 0.0 | 3.2 | 0.00 | 0.00 | 0.00 | 52 | 1014.1 |
| 20260508213053 | 21 | 0 | 0.0 | 3.2 | 0.00 | 0.00 | 0.00 | 48 | 1014.0 |
| 20260508212553 | 21 | 0 | 0.0 | 3.2 | 0.00 | 0.00 | 0.00 | 47 | 1014.0 |
| 20260508212053 | 21 | 360 | 0.0 | 6.4 | 0.00 | 0.00 | 0.00 | 48 | 1014.0 |
| 20260508211559 | 21 | 0 | 0.0 | 6.4 | 0.00 | 0.00 | 0.00 | 45 | 1014.2 |
| 20260508211053 | 21 | 360 | 0.0 | 6.4 | 0.00 | 0.00 | 0.00 | 49 | 1014.4 |
| 20260508210557 | 21 | 0 | 0.0 | 6.4 | 0.00 | 0.00 | 0.00 | 48 | 1014.6 |
| 20260508210107 | 21 | 360 | 1.6 | 6.4 | 0.00 | 0.00 | 0.00 | 47 | 1014.5 |
| 20260508205552 | 21 | 360 | 1.6 | 4.8 | 0.00 | 0.00 | 0.00 | 47 | 1014.6 |
| 20260508205055 | 21 | 360 | 0.0 | 3.2 | 0.00 | 0.00 | 0.00 | 50 | 1014.7 |
| 20260508204607 | 21 | 0 | 0.0 | 4.8 | 0.00 | 0.00 | 0.00 | 52 | 1014.9 |
| 20260508204053 | 21 | 0 | 0.0 | 4.8 | 0.00 | 0.00 | 0.00 | 48 | 1014.8 |
| 20260508203557 | 21 | 0 | 0.0 | 4.8 | 0.00 | 0.00 | 0.00 | 46 | 1014.7 |
| 20260508203102 | 21 | 0 | 1.6 | 4.8 | 0.00 | 0.00 | 0.00 | 50 | 1014.8 |
| 20260508202553 | 21 | 0 | 0.0 | 6.4 | 0.00 | 0.00 | 0.00 | 49 | 1014.7 |
| 20260508202053 | 21 | 0 | 0.0 | 6.4 | 0.00 | 0.00 | 0.00 | 49 | 1014.7 |
| 20260508201558 | 21 | 0 | 1.6 | 6.4 | 0.00 | 0.00 | 0.00 | 48 | 1014.7 |
| 20260508201053 | 21 | 0 | 0.0 | 3.2 | 0.00 | 0.00 | 0.00 | 47 | 1014.7 |
| 20260508200554 | 21 | 0 | 0.0 | 3.2 | 0.00 | 0.00 | 0.00 | 48 | 1015.0 |
| 20260508200059 | 21 | 360 | 0.0 | 3.2 | 0.00 | 0.00 | 0.00 | 49 | 1015.0 |
| 20260508195552 | 21 | 0 | 0.0 | 3.2 | 0.00 | 0.00 | 0.00 | 50 | 1015.1 |
| 20260508195053 | 21 | 0 | 0.0 | 4.8 | 0.00 | 0.00 | 0.00 | 48 | 1015.4 |
| 20260508194555 | 21 | 0 | 0.0 | 4.8 | 0.00 | 0.00 | 0.00 | 48 | 1015.3 |
| 20260508194052 | 20 | 360 | 0.0 | 3.2 | 0.00 | 0.00 | 0.00 | 47 | 1015.3 |
| 20260508193552 | 20 | 0 | 0.0 | 3.2 | 0.00 | 0.00 | 0.00 | 45 | 1015.4 |
| 20260508193058 | 21 | 0 | 0.0 | 1.6 | 0.00 | 0.00 | 0.00 | 46 | 1015.7 |
| 20260508192554 | 21 | 0 | 0.0 | 3.2 | 0.00 | 0.00 | 0.00 | 41 | 1015.6 |
| 20260508192055 | 21 | 0 | 0.0 | 3.2 | 0.00 | 0.00 | 0.00 | 42 | 1015.7 |
| 20260508191557 | 21 | 0 | 0.0 | 4.8 | 0.00 | 0.00 | 0.00 | 43 | 1015.8 |
| 20260508191052 | 21 | 0 | 0.0 | 4.8 | 0.00 | 0.00 | 0.00 | 41 | 1015.8 |
| 20260508190553 | 21 | 360 | 0.0 | 4.8 | 0.00 | 0.00 | 0.00 | 45 | 1015.8 |
| 20260508190053 | 21 | 360 | 0.0 | 3.2 | 0.00 | 0.00 | 0.00 | 44 | 1015.9 |
| 20260508185556 | 21 | 0 | 0.0 | 3.2 | 0.00 | 0.00 | 0.00 | 46 | 1016.0 |
| 20260508185053 | 21 | 360 | 0.0 | 3.2 | 0.00 | 0.00 | 0.00 | 47 | 1016.0 |
| 20260508184555 | 21 | 0 | 0.0 | 4.8 | 0.00 | 0.00 | 0.00 | 42 | 1016.1 |
| 20260508184057 | 21 | 0 | 0.0 | 6.4 | 0.00 | 0.00 | 0.00 | 45 | 1016.4 |
| 20260508183552 | 21 | 360 | 1.6 | 6.4 | 0.00 | 0.00 | 0.00 | 43 | 1016.6 |
| 20260508183054 | 21 | 360 | 1.6 | 6.4 | 0.00 | 0.00 | 0.00 | 41 | 1016.7 |
| 20260508182553 | 21 | 360 | 1.6 | 8.0 | 0.00 | 0.00 | 0.00 | 45 | 1016.9 |
| 20260508182052 | 21 | 360 | 0.0 | 8.0 | 0.00 | 0.00 | 0.00 | 40 | 1016.8 |
| 20260508181553 | 21 | 0 | 3.2 | 8.0 | 0.00 | 0.00 | 0.00 | 43 | 1017.0 |
| 20260508181053 | 21 | 360 | 0.0 | 6.4 | 0.00 | 0.00 | 0.00 | 46 | 1016.9 |
| 20260508180553 | 21 | 0 | 0.0 | 6.4 | 0.00 | 0.00 | 0.00 | 44 | 1016.9 |
| 20260508180053 | 20 | 0 | 1.6 | 6.4 | 0.00 | 0.00 | 0.00 | 44 | 1016.8 |
| 20260508175552 | 20 | 360 | 0.0 | 4.8 | 0.00 | 0.00 | 0.00 | 47 | 1017.1 |
| 20260508175053 | 20 | 360 | 1.6 | 4.8 | 0.00 | 0.00 | 0.00 | 43 | 1016.9 |
| 20260508174556 | 20 | 360 | 1.6 | 6.4 | 0.00 | 0.00 | 0.00 | 48 | 1017.1 |
| 20260508174052 | 20 | 360 | 1.6 | 6.4 | 0.00 | 0.00 | 0.00 | 52 | 1017.3 |
| 20260508173553 | 21 | 360 | 1.6 | 4.8 | 0.00 | 0.00 | 0.00 | 46 | 1017.4 |
| 20260508173056 | 20 | 360 | 0.0 | 4.8 | 0.00 | 0.00 | 0.00 | 45 | 1017.6 |
| 20260508172552 | 21 | 360 | 0.0 | 3.2 | 0.00 | 0.00 | 0.00 | 46 | 1017.6 |
| 20260508172053 | 21 | 360 | 0.0 | 4.8 | 0.00 | 0.00 | 0.00 | 45 | 1017.6 |
| 20260508171556 | 20 | 0 | 1.6 | 4.8 | 0.00 | 0.00 | 0.00 | 44 | 1017.7 |
| 20260508171053 | 20 | 360 | 0.0 | 3.2 | 0.00 | 0.00 | 0.00 | 45 | 1017.7 |
| 20260508170552 | 20 | 0 | 0.0 | 3.2 | 0.00 | 0.00 | 0.00 | 47 | 1017.5 |
| 20260508170059 | 20 | 360 | 0.0 | 3.2 | 0.00 | 0.00 | 0.00 | 45 | 1017.6 |
| 20260508165552 | 20 | 0 | 0.0 | 6.4 | 0.00 | 0.00 | 0.00 | 46 | 1017.7 |
| 20260508165052 | 20 | 0 | 1.6 | 6.4 | 0.00 | 0.00 | 0.00 | 42 | 1017.7 |
| 20260508164551 | 21 | 360 | 0.0 | 6.4 | 0.00 | 0.00 | 0.00 | 42 | 1018.0 |
| 20260508164053 | 21 | 360 | 0.0 | 16.1 | 0.00 | 0.00 | 0.00 | 44 | 1018.0 |
| 20260508163552 | 21 | 0 | 6.4 | 16.1 | 0.00 | 0.00 | 0.00 | 44 | 1018.1 |
| 20260508163054 | 20 | 0 | 1.6 | 8.0 | 0.00 | 0.00 | 0.00 | 42 | 1018.3 |
| 20260508162552 | 20 | 0 | 3.2 | 8.0 | 0.00 | 0.00 | 0.00 | 40 | 1018.4 |
| 20260508162055 | 20 | 360 | 0.0 | 6.4 | 0.00 | 0.00 | 0.00 | 47 | 1018.4 |
| 20260508161602 | 20 | 0 | 1.6 | 4.8 | 0.00 | 0.00 | 0.00 | 47 | 1018.5 |
| 20260508161053 | 20 | 0 | 0.0 | 4.8 | 0.00 | 0.00 | 0.00 | 48 | 1018.7 |
| 20260508160552 | 20 | 360 | 0.0 | 4.8 | 0.00 | 0.00 | 0.00 | 47 | 1018.7 |
| 20260508160059 | 19 | 0 | 0.0 | 3.2 | 0.00 | 0.00 | 0.00 | 44 | 1018.8 |
| 20260508155553 | 20 | 0 | 0.0 | 3.2 | 0.00 | 0.00 | 0.00 | 45 | 1018.7 |
| 20260508155053 | 20 | 0 | 0.0 | 6.4 | 0.00 | 0.00 | 0.00 | 48 | 1018.9 |
| 20260508154601 | 20 | 0 | 0.0 | 8.0 | 0.00 | 0.00 | 0.00 | 49 | 1018.8 |
| 20260508154052 | 19 | 0 | 1.6 | 8.0 | 0.00 | 0.00 | 0.00 | 49 | 1018.8 |
| 20260508153552 | 19 | 0 | 0.0 | 4.8 | 0.00 | 0.00 | 0.00 | 56 | 1018.8 |
| 20260508153054 | 19 | 0 | 0.0 | 4.8 | 0.00 | 0.00 | 0.00 | 52 | 1018.9 |
| 20260508152554 | 19 | 0 | 0.0 | 9.7 | 0.00 | 0.00 | 0.00 | 51 | 1019.0 |
| 20260508152052 | 18 | 0 | 0.0 | 9.7 | 0.00 | 0.00 | 0.00 | 50 | 1019.1 |
| 20260508151600 | 18 | 0 | 3.2 | 9.7 | 0.00 | 0.00 | 0.00 | 51 | 1019.2 |
| 20260508151052 | 18 | 360 | 3.2 | 9.7 | 0.00 | 0.00 | 0.00 | 54 | 1019.3 |
| 20260508150552 | 18 | 0 | 0.0 | 3.2 | 0.00 | 0.00 | 0.00 | 56 | 1019.1 |
| 20260508150055 | 18 | 0 | 0.0 | 3.2 | 0.00 | 0.00 | 0.00 | 54 | 1019.1 |
| 20260508145555 | 18 | 0 | 0.0 | 8.0 | 0.00 | 0.00 | 0.00 | 58 | 1019.1 |
| 20260508145053 | 17 | 0 | 0.0 | 8.0 | 0.00 | 0.00 | 0.00 | 59 | 1019.2 |
| 20260508144555 | 17 | 360 | 1.6 | 6.4 | 0.00 | 0.00 | 0.00 | 62 | 1019.2 |
| 20260508144053 | 17 | 0 | 0.0 | 3.2 | 0.00 | 0.00 | 0.00 | 64 | 1019.2 |
| 20260508143553 | 17 | 0 | 0.0 | 1.6 | 0.00 | 0.00 | 0.00 | 65 | 1019.3 |
| 20260508143104 | 16 | 0 | 0.0 | 1.6 | 0.00 | 0.00 | 0.00 | 65 | 1019.4 |
| 20260508142552 | 16 | 0 | 0.0 | 3.2 | 0.00 | 0.00 | 0.00 | 66 | 1019.4 |
| 20260508142053 | 16 | 0 | 0.0 | 3.2 | 0.00 | 0.00 | 0.00 | 65 | 1019.4 |
| 20260508141551 | 16 | 0 | 0.0 | 3.2 | 0.00 | 0.00 | 0.00 | 68 | 1019.3 |
| 20260508141053 | 16 | 0 | 0.0 | 4.8 | 0.00 | 0.00 | 0.00 | 67 | 1019.5 |
| 20260508140552 | 16 | 0 | 0.0 | 4.8 | 0.00 | 0.00 | 0.00 | 65 | 1019.6 |
| 20260508140053 | 16 | 0 | 0.0 | 6.4 | 0.00 | 0.00 | 0.00 | 67 | 1019.5 |
| 20260508135553 | 15 | 0 | 0.0 | 6.4 | 0.00 | 0.00 | 0.00 | 69 | 1019.5 |
| 20260508135052 | 15 | 360 | 1.6 | 6.4 | 0.00 | 0.00 | 0.00 | 69 | 1019.5 |
| 20260508134550 | 15 | 0 | 0.0 | 6.4 | 0.00 | 0.00 | 0.00 | 69 | 1019.5 |
| 20260508134052 | 14 | 360 | 1.6 | 6.4 | 0.00 | 0.00 | 0.00 | 71 | 1019.4 |
| 20260508133552 | 13 | 360 | 0.0 | 6.4 | 0.00 | 0.00 | 0.00 | 73 | 1019.4 |
| 20260508133050 | 13 | 360 | 0.0 | 4.8 | 0.00 | 0.00 | 0.00 | 74 | 1019.3 |
| 20260508132553 | 13 | 0 | 0.0 | 4.8 | 0.00 | 0.00 | 0.00 | 75 | 1019.3 |
| 20260508132053 | 12 | 0 | 0.0 | 4.8 | 0.00 | 0.00 | 0.00 | 77 | 1019.4 |
| 20260508131558 | 12 | 0 | 0.0 | 4.8 | 0.00 | 0.00 | 0.00 | 78 | 1019.3 |
| 20260508131053 | 12 | 0 | 0.0 | 3.2 | 0.00 | 0.00 | 0.00 | 78 | 1019.4 |
| 20260508130552 | 12 | 0 | 0.0 | 4.8 | 0.00 | 0.00 | 0.00 | 79 | 1019.4 |
| 20260508130109 | 11 | 0 | 0.0 | 4.8 | 0.00 | 0.00 | 0.00 | 80 | 1019.3 |
| 20260508125552 | 11 | 360 | 0.0 | 4.8 | 0.00 | 0.00 | 0.00 | 81 | 1019.4 |
| 20260508125053 | 11 | 0 | 0.0 | 4.8 | 0.00 | 0.00 | 0.00 | 81 | 1019.4 |
| 20260508124554 | 10 | 0 | 1.6 | 4.8 | 0.00 | 0.00 | 0.00 | 83 | 1019.5 |
| 20260508124052 | 10 | 360 | 0.0 | 3.2 | 0.00 | 0.00 | 0.00 | 83 | 1019.5 |
| 20260508123554 | 10 | 360 | 0.0 | 1.6 | 0.00 | 0.00 | 0.00 | 84 | 1019.5 |
| 20260508123100 | 10 | 0 | 0.0 | 1.6 | 0.00 | 0.00 | 0.00 | 85 | 1019.5 |
| 20260508122552 | 9 | 0 | 0.0 | 1.6 | 0.00 | 0.00 | 0.00 | 86 | 1019.5 |
| 20260508122057 | 9 | 0 | 0.0 | 1.6 | 0.00 | 0.00 | 0.00 | 85 | 1019.3 |
| 20260508121602 | 8 | 0 | 0.0 | 0.0 | 0.00 | 0.00 | 0.00 | 87 | 1019.3 |
| 20260508121053 | 8 | 0 | 0.0 | 0.0 | 0.00 | 0.00 | 0.00 | 88 | 1019.2 |
| 20260508120552 | 8 | 0 | 0.0 | 0.0 | 0.00 | 0.00 | 0.00 | 88 | 1019.2 |
| 20260508120056 | 8 | 0 | 0.0 | 0.0 | 0.00 | 0.00 | 0.00 | 87 | 1019.2 |
| 20260508115553 | 8 | 0 | 0.0 | 0.0 | 0.00 | 0.00 | 0.00 | 88 | 1019.1 |
| 20260508115052 | 8 | 0 | 0.0 | 0.0 | 0.00 | 0.00 | 0.00 | 88 | 1019.0 |
| 20260508114557 | 8 | 0 | 0.0 | 0.0 | 0.00 | 0.00 | 0.00 | 88 | 1019.1 |
| 20260508114052 | 8 | 0 | 0.0 | 0.0 | 0.00 | 0.00 | 0.00 | 88 | 1018.9 |
| 20260508113552 | 8 | 0 | 0.0 | 0.0 | 0.00 | 0.00 | 0.00 | 88 | 1018.6 |
| 20260508113053 | 8 | 0 | 0.0 | 0.0 | 0.00 | 0.00 | 0.00 | 88 | 1018.4 |
| 20260508112552 | 8 | 0 | 0.0 | 0.0 | 0.00 | 0.00 | 0.00 | 88 | 1018.4 |
| 20260508112052 | 8 | 0 | 0.0 | 0.0 | 0.00 | 0.00 | 0.00 | 87 | 1018.3 |
| 20260508111556 | 8 | 0 | 0.0 | 0.0 | 0.00 | 0.00 | 0.00 | 87 | 1018.0 |
| 20260508111054 | 8 | 0 | 0.0 | 1.6 | 0.00 | 0.00 | 0.00 | 87 | 1018.0 |
| 20260508110553 | 8 | 0 | 0.0 | 1.6 | 0.00 | 0.00 | 0.00 | 86 | 1017.9 |
| 20260508110057 | 8 | 0 | 0.0 | 3.2 | 0.00 | 0.00 | 0.00 | 85 | 1017.9 |
| 20260508105552 | 8 | 0 | 0.0 | 4.8 | 0.00 | 0.03 | 0.00 | 86 | 1017.8 |
| 20260508105053 | 8 | 0 | 0.0 | 4.8 | 0.00 | 0.03 | 0.00 | 87 | 1017.8 |
| 20260508104617 | 8 | 360 | 0.0 | 1.6 | 0.00 | 0.03 | 0.00 | 87 | 1017.8 |
| 20260508104057 | 8 | 0 | 0.0 | 3.2 | 0.00 | 0.03 | 0.00 | 88 | 1017.8 |
| 20260508103552 | 8 | 0 | 0.0 | 3.2 | 0.00 | 0.03 | 0.00 | 88 | 1017.6 |
| 20260508103056 | 8 | 360 | 0.0 | 4.8 | 0.00 | 0.03 | 0.00 | 88 | 1017.7 |
| 20260508102552 | 8 | 360 | 1.6 | 6.4 | 0.00 | 0.03 | 0.00 | 89 | 1017.4 |
| 20260508102052 | 8 | 360 | 1.6 | 6.4 | 0.00 | 0.03 | 0.00 | 89 | 1017.5 |
| 20260508101553 | 8 | 360 | 1.6 | 4.8 | 0.00 | 0.03 | 0.00 | 89 | 1017.3 |
| 20260508101053 | 8 | 0 | 0.0 | 3.2 | 0.00 | 0.03 | 0.00 | 89 | 1017.1 |
| 20260508100552 | 8 | 360 | 0.0 | 6.4 | 0.00 | 0.03 | 0.00 | 89 | 1017.2 |
| 20260508100100 | 8 | 0 | 0.0 | 6.4 | 0.00 | 0.03 | 0.00 | 90 | 1017.3 |
| 20260508095552 | 8 | 360 | 1.6 | 4.8 | 0.00 | 0.28 | 0.00 | 90 | 1017.1 |
| 20260508095052 | 8 | 360 | 1.6 | 4.8 | 0.00 | 0.28 | 0.00 | 90 | 1017.3 |
| 20260508094557 | 8 | 0 | 0.0 | 1.6 | 0.00 | 0.28 | 0.00 | 90 | 1017.3 |
| 20260508094054 | 8 | 0 | 0.0 | 0.0 | 0.00 | 0.28 | 0.00 | 90 | 1017.1 |
| 20260508093556 | 8 | 0 | 0.0 | 0.0 | 0.00 | 0.28 | 0.00 | 90 | 1017.1 |
| 20260508093101 | 8 | 0 | 0.0 | 0.0 | 0.00 | 0.28 | 0.00 | 90 | 1017.0 |
| 20260508092551 | 8 | 0 | 0.0 | 0.0 | 0.00 | 0.28 | 0.00 | 90 | 1017.2 |
| 20260508092056 | 8 | 0 | 0.0 | 0.0 | 0.00 | 0.28 | 0.00 | 90 | 1017.2 |
| 20260508091609 | 8 | 0 | 0.0 | 0.0 | 0.00 | 0.28 | 0.00 | 89 | 1017.1 |
| 20260508091050 | 8 | 0 | 0.0 | 0.0 | 0.00 | 0.28 | 0.00 | 89 | 1017.2 |
| 20260508090557 | 8 | 0 | 0.0 | 0.0 | 0.00 | 0.28 | 0.00 | 89 | 1017.1 |
| 20260508090107 | 8 | 0 | 0.0 | 0.0 | 0.00 | 0.28 | 0.00 | 89 | 1016.9 |
| 20260508085552 | 8 | 0 | 0.0 | 0.0 | 0.00 | 0.46 | 0.00 | 89 | 1017.0 |
| 20260508085052 | 8 | 0 | 0.0 | 0.0 | 0.00 | 0.46 | 0.00 | 90 | 1016.8 |
| 20260508084557 | 8 | 0 | 0.0 | 0.0 | 0.00 | 0.46 | 0.00 | 90 | 1016.9 |
| 20260508084052 | 8 | 0 | 0.0 | 0.0 | 0.00 | 0.46 | 0.00 | 90 | 1016.9 |
| 20260508083553 | 8 | 0 | 0.0 | 0.0 | 0.00 | 0.46 | 0.00 | 90 | 1016.9 |
| 20260508083111 | 8 | 0 | 0.0 | 0.0 | 0.00 | 0.46 | 0.00 | 89 | 1016.8 |
| 20260508082552 | 9 | 0 | 0.0 | 0.0 | 0.00 | 0.46 | 0.00 | 89 | 1016.8 |
| 20260508082052 | 9 | 0 | 0.0 | 0.0 | 0.00 | 0.46 | 0.00 | 89 | 1016.9 |
| 20260508081559 | 9 | 0 | 0.0 | 0.0 | 0.00 | 0.46 | 0.00 | 89 | 1016.9 |
| 20260508081055 | 9 | 0 | 0.0 | 0.0 | 0.00 | 0.46 | 0.00 | 89 | 1017.1 |
| 20260508080552 | 9 | 0 | 0.0 | 0.0 | 0.00 | 0.46 | 0.00 | 89 | 1017.0 |
| 20260508080110 | 9 | 0 | 0.0 | 0.0 | 0.00 | 0.46 | 0.00 | 89 | 1017.0 |
| 20260508075551 | 9 | 0 | 0.0 | 0.0 | 0.00 | 0.46 | 0.00 | 89 | 1016.9 |
| 20260508075052 | 9 | 0 | 0.0 | 0.0 | 0.00 | 0.46 | 0.00 | 90 | 1016.9 |
| 20260508074557 | 9 | 0 | 0.0 | 0.0 | 0.00 | 0.46 | 0.00 | 89 | 1017.0 |
| 20260508074052 | 9 | 0 | 0.0 | 0.0 | 0.00 | 0.46 | 0.00 | 89 | 1016.9 |
| 20260508073553 | 9 | 0 | 0.0 | 0.0 | 0.00 | 0.46 | 0.00 | 88 | 1017.1 |
| 20260508073106 | 9 | 0 | 0.0 | 0.0 | 0.00 | 0.46 | 0.00 | 89 | 1017.0 |
| 20260508072552 | 9 | 0 | 0.0 | 0.0 | 0.00 | 0.46 | 0.00 | 89 | 1017.0 |
| 20260508072052 | 9 | 0 | 0.0 | 0.0 | 0.00 | 0.46 | 0.00 | 88 | 1017.1 |
| 20260508071604 | 9 | 0 | 0.0 | 0.0 | 0.00 | 0.46 | 0.00 | 88 | 1017.1 |
| 20260508071052 | 9 | 0 | 0.0 | 0.0 | 0.00 | 0.46 | 0.00 | 88 | 1017.2 |
| 20260508070553 | 10 | 0 | 0.0 | 0.0 | 0.00 | 0.46 | 0.00 | 88 | 1017.3 |
| 20260508070142 | 10 | 0 | 0.0 | 0.0 | 0.00 | 0.46 | 0.00 | 88 | 1017.2 |
| 20260508065552 | 10 | 0 | 0.0 | 0.0 | 0.00 | 0.46 | 0.00 | 88 | 1017.3 |
| 20260508065051 | 10 | 0 | 0.0 | 0.0 | 0.00 | 0.46 | 0.00 | 88 | 1017.2 |
| 20260508064614 | 10 | 0 | 0.0 | 0.0 | 0.00 | 0.46 | 0.00 | 87 | 1017.3 |
| 20260508064055 | 10 | 0 | 0.0 | 0.0 | 0.00 | 0.46 | 0.00 | 87 | 1017.5 |
| 20260508063553 | 10 | 0 | 0.0 | 0.0 | 0.00 | 0.46 | 0.00 | 87 | 1017.5 |
| 20260508063059 | 10 | 0 | 0.0 | 0.0 | 0.00 | 0.46 | 0.00 | 87 | 1017.4 |
| 20260508062552 | 10 | 0 | 0.0 | 0.0 | 0.00 | 0.46 | 0.00 | 87 | 1017.6 |
| 20260508062052 | 10 | 0 | 0.0 | 0.0 | 0.00 | 0.46 | 0.00 | 86 | 1017.4 |
| 20260508061605 | 10 | 0 | 0.0 | 0.0 | 0.00 | 0.46 | 0.00 | 87 | 1017.5 |
| 20260508061055 | 10 | 0 | 0.0 | 0.0 | 0.00 | 0.46 | 0.00 | 86 | 1017.5 |
| 20260508060552 | 10 | 0 | 0.0 | 0.0 | 0.00 | 0.46 | 0.00 | 86 | 1017.7 |
| 20260508060056 | 10 | 0 | 0.0 | 0.0 | 0.00 | 0.46 | 0.00 | 86 | 1017.4 |
| 20260508055556 | 10 | 0 | 0.0 | 0.0 | 0.00 | 0.46 | 0.00 | 87 | 1017.5 |
| 20260508055052 | 10 | 0 | 0.0 | 0.0 | 0.00 | 0.46 | 0.00 | 86 | 1017.6 |
| 20260508054553 | 10 | 0 | 0.0 | 0.0 | 0.00 | 0.46 | 0.00 | 86 | 1017.6 |
| 20260508054056 | 10 | 0 | 0.0 | 0.0 | 0.00 | 0.46 | 0.00 | 86 | 1017.6 |
| 20260508053552 | 11 | 0 | 0.0 | 0.0 | 0.00 | 0.46 | 0.00 | 86 | 1017.6 |
| 20260508053103 | 11 | 0 | 0.0 | 0.0 | 0.00 | 0.46 | 0.00 | 85 | 1017.6 |
| 20260508052553 | 11 | 0 | 0.0 | 0.0 | 0.00 | 0.46 | 0.00 | 85 | 1017.5 |
| 20260508052054 | 11 | 0 | 0.0 | 0.0 | 0.00 | 0.46 | 0.00 | 85 | 1017.6 |
| 20260508051558 | 11 | 0 | 0.0 | 0.0 | 0.00 | 0.46 | 0.00 | 85 | 1017.4 |
| 20260508051052 | 11 | 0 | 0.0 | 0.0 | 0.00 | 0.46 | 0.00 | 84 | 1017.4 |
| 20260508050553 | 11 | 0 | 0.0 | 0.0 | 0.00 | 0.46 | 0.00 | 84 | 1017.3 |
| 20260508045552 | 11 | 0 | 0.0 | 0.0 | 0.00 | 0.51 | 0.00 | 85 | 1017.3 |
| 20260508045052 | 11 | 0 | 0.0 | 0.0 | 0.00 | 0.51 | 0.00 | 84 | 1017.3 |
| 20260508044552 | 11 | 0 | 0.0 | 0.0 | 0.00 | 0.51 | 0.00 | 84 | 1017.5 |
| 20260508044051 | 11 | 0 | 0.0 | 0.0 | 0.00 | 0.51 | 0.00 | 83 | 1017.2 |
| 20260508043551 | 11 | 0 | 0.0 | 0.0 | 0.00 | 0.51 | 0.00 | 83 | 1017.3 |
| 20260508043102 | 11 | 0 | 0.0 | 0.0 | 0.00 | 0.51 | 0.00 | 83 | 1017.3 |
| 20260508042549 | 12 | 0 | 0.0 | 0.0 | 0.00 | 0.51 | 0.00 | 83 | 1017.3 |
| 20260508042048 | 12 | 0 | 0.0 | 0.0 | 0.00 | 0.51 | 0.00 | 84 | 1017.2 |
| 20260508041555 | 12 | 0 | 0.0 | 0.0 | 0.00 | 0.51 | 0.00 | 82 | 1017.3 |
| 20260508041055 | 12 | 0 | 0.0 | 0.0 | 0.00 | 0.51 | 0.00 | 82 | 1017.2 |
| 20260508040552 | 12 | 0 | 0.0 | 0.0 | 0.00 | 0.51 | 0.00 | 82 | 1017.2 |
| 20260508040052 | 12 | 0 | 0.0 | 0.0 | 0.00 | 0.51 | 0.00 | 82 | 1017.2 |
| 20260508035552 | 12 | 0 | 0.0 | 0.0 | 0.00 | 0.58 | 0.51 | 82 | 1017.0 |
| 20260508035052 | 12 | 0 | 0.0 | 0.0 | 0.00 | 0.58 | 0.51 | 82 | 1017.0 |
| 20260508034559 | 12 | 0 | 0.0 | 0.0 | 0.00 | 0.58 | 0.51 | 82 | 1017.1 |
| 20260508034052 | 13 | 0 | 0.0 | 0.0 | 0.00 | 0.58 | 0.51 | 81 | 1017.0 |
| 20260508033552 | 13 | 0 | 0.0 | 0.0 | 0.00 | 0.58 | 0.51 | 81 | 1017.0 |
| 20260508033057 | 13 | 0 | 0.0 | 0.0 | 0.00 | 0.58 | 0.51 | 80 | 1017.1 |
| 20260508032552 | 13 | 0 | 0.0 | 0.0 | 0.00 | 0.58 | 0.51 | 80 | 1016.9 |
| 20260508032052 | 13 | 0 | 0.0 | 0.0 | 0.00 | 0.58 | 0.51 | 79 | 1017.0 |
| 20260508031555 | 13 | 0 | 0.0 | 0.0 | 0.00 | 0.58 | 0.51 | 79 | 1016.9 |